Weather History for Kozani, Greece

Change the Weather History Date:

Tuesday, January 7, 2014

  Actual Average Record
Temperature  
Mean Temperature 46 °F -  
Max Temperature 53 °F - - ()
Min Temperature 37 °F - - ()
Degree Days  
Heating Degree Days 19    
Moisture  
Dew Point 41 °F    
Average Humidity 87    
Maximum Humidity 100    
Minimum Humidity 71    
Precipitation  
Precipitation 0.00 in - - ()
Sea Level Pressure  
Sea Level Pressure 30.23 in    
Wind  
Wind Speed 3 mph ()    
Max Wind Speed 14 mph    
Max Gust Speed -    
Visibility 5.5 miles    
Events      
T = Trace of Precipitation, MM = Missing Value Source: Averaged Metar Reports

Daily Weather History Graph

Daily Weather History Graph

Search for Another Location

Airport:

Trip Planner

Search our weather history database for the weather conditions in past years. The results will help you decide how hot, cold, wet, or windy it might be!

Date:

Astronomy

Jan. 07, 2014 Rise Set
Actual Time 7:55 AM EET 5:22 PM EET
Civil Twilight 7:25 AM EET 5:52 PM EET
Nautical Twilight 6:51 AM EET 6:26 PM EET
Astronomical Twilight 6:18 AM EET 6:59 PM EET
Moon 11:32 AM EET (1/7) No Moon Set
Length of Visible Light 10h 27m
Length of Day
9h 27m
Waxing Crescent, 42% of the Moon is Illuminated
Jan 7
Waxing Crescent
Jan 8
First Quarter
Jan 16
Full
Jan 24
Last Quarter
Jan 30
New

Hourly Weather History & Observations

Time (EET) Temp. Windchill Dew Point Humidity Pressure Visibility Wind Dir Wind Speed Gust Speed Precip Events Conditions
12:20 AM 42.8 °F - 42.8 °F 100% 30.18 in - Variable 1.2 mph - N/A   Unknown
12:50 AM 42.8 °F - 42.8 °F 100% 30.18 in - Variable 2.3 mph - N/A   Unknown
1:20 AM 44.6 °F - 42.8 °F 93% 30.18 in - Variable 2.3 mph - N/A   Unknown
1:50 AM 44.6 °F - 42.8 °F 93% 30.18 in - Variable 1.2 mph - N/A   Unknown
2:20 AM 44.6 °F 43.1 °F 42.8 °F 93% 30.18 in - Variable 3.5 mph - N/A   Unknown
2:50 AM 44.6 °F 42.2 °F 41.0 °F 87% 30.21 in - NNW 4.6 mph - N/A   Unknown
3:20 AM 44.6 °F - 41.0 °F 87% 30.21 in - Variable 1.2 mph - N/A   Unknown
3:50 AM 44.6 °F - 41.0 °F 87% 30.18 in - Variable 2.3 mph - N/A   Unknown
4:20 AM 42.8 °F - 41.0 °F 93% 30.18 in - Variable 2.3 mph - N/A   Unknown
5:20 AM 42.8 °F - 41.0 °F 93% 30.18 in - Variable 2.3 mph - N/A   Unknown
5:50 AM 42.8 °F 40.1 °F 41.0 °F 93% 30.18 in - NW 4.6 mph - N/A   Unknown
6:20 AM 41.0 °F - 39.2 °F 93% 30.21 in - Variable 2.3 mph - N/A   Unknown
6:50 AM 42.8 °F 41.1 °F 41.0 °F 93% 30.21 in - Variable 3.5 mph - N/A   Unknown
7:20 AM 42.8 °F 41.1 °F 39.2 °F 87% 30.21 in - Variable 3.5 mph - N/A   Unknown
7:50 AM 42.8 °F 40.1 °F 41.0 °F 93% 30.21 in - NNW 4.6 mph - N/A   Unknown
8:50 AM 42.8 °F - 41.0 °F 93% 30.24 in 6.2 mi Calm Calm - N/A   Scattered Clouds
9:50 AM 48.2 °F - 42.8 °F 82% 30.27 in 6.2 mi North 4.6 mph - N/A   Scattered Clouds
10:50 AM 46.4 °F - 44.6 °F 93% 30.27 in 1.9 mi Calm Calm - N/A   Partly Cloudy
11:50 AM 51.8 °F - 42.8 °F 71% 30.27 in 6.2 mi Calm Calm - N/A   Partly Cloudy
12:50 PM 51.8 °F - 46.4 °F 82% 30.24 in 6.2 mi Calm Calm - N/A   Scattered Clouds
1:50 PM 51.8 °F - 42.8 °F 71% 30.24 in 6.2 mi North 6.9 mph - N/A   Scattered Clouds
2:20 PM 53.6 °F - 44.6 °F 72% 30.24 in - Variable 3.5 mph - N/A   Unknown
2:50 PM 51.8 °F - 46.4 °F 82% 30.24 in - Variable 3.5 mph - N/A   Unknown
3:20 PM 51.8 °F - 46.4 °F 82% 30.24 in - Variable 3.5 mph - N/A   Unknown
3:50 PM 51.8 °F - 44.6 °F 76% 30.24 in - Variable 2.3 mph - N/A   Unknown
4:20 PM 51.8 °F - 44.6 °F 76% 30.24 in - Variable 1.2 mph - N/A   Unknown
4:50 PM 50.0 °F - 42.8 °F 76% 30.24 in - Variable 1.2 mph - N/A   Unknown
5:20 PM 46.4 °F - 42.8 °F 87% 30.24 in - Variable 1.2 mph - N/A   Unknown
5:50 PM 46.4 °F 44.3 °F 42.8 °F 87% 30.24 in - North 4.6 mph - N/A   Unknown
6:20 PM 46.4 °F 43.5 °F 41.0 °F 81% 30.24 in - NNW 5.8 mph - N/A   Unknown
6:50 PM 46.4 °F 43.5 °F 41.0 °F 81% 30.27 in - NNW 5.8 mph - N/A   Unknown
7:20 PM 46.4 °F 43.5 °F 41.0 °F 81% 30.27 in - North 5.8 mph - N/A   Unknown
7:50 PM 44.6 °F 40.7 °F 39.2 °F 81% 30.27 in - NNW 6.9 mph - N/A   Unknown
8:20 PM 42.8 °F 38.0 °F 39.2 °F 87% 30.27 in - NNW 8.1 mph - N/A   Unknown
8:50 PM 42.8 °F 37.5 °F 39.2 °F 87% 30.27 in - NNW 9.2 mph - N/A   Unknown
9:20 PM 42.8 °F 37.0 °F 37.4 °F 81% 30.27 in - NNW 10.4 mph - N/A   Unknown
9:50 PM 42.8 °F 37.5 °F 39.2 °F 87% 30.27 in - NNW 9.2 mph - N/A   Unknown
10:20 PM 41.0 °F 34.3 °F 37.4 °F 87% 30.27 in - NNW 11.5 mph - N/A   Unknown
10:50 PM 39.2 °F 33.0 °F 37.4 °F 93% 30.27 in - NNW 9.2 mph - N/A   Unknown
11:20 PM 39.2 °F 31.6 °F 37.4 °F 93% 30.27 in - NNW 12.7 mph - N/A   Unknown
11:50 PM 37.4 °F 28.9 °F 35.6 °F 93% 30.27 in - NNW 13.8 mph - N/A   Unknown